[[{"header":{"parameterUnit":"m.s-1","parameterCategory":2,"la1":30.2991,"la2":30.254,"lo1":-89.0895,"lo2":-89.0444,"dy":0.0017,"dx":0.0017,"nx":28,"ny":28,"refTime":"2023-08-24T21:00:00:Z","depth":"0","parameterNumber":2,"parameterNumberName":"U-component_of_CURRENTS"},"data":[0,0,0,0,0,0,0,0,0,0,0,0,0,0,0,0,0,0,0,0,0,0,0,0,0,0,0,0,0,0,0,0,0,0,0,0,0,0,0,0,0,0,0,0,0,0,0,0,0,0,0,0,0,0,0,0,0,0,0.2623,0.2623,0,0.2573,0.2572,0.2572,0.2474,0.2473,0.2471,0.2469,0.245,0.2451,0.2452,0,0,0,0,0,0,0,0,0,0,0,0,0,0.2657,0.2657,0.2623,0.2623,0.2623,0.2573,0.2572,0.2571,0.2475,0.2472,0.247,0.2468,0.2449,0.2451,0.2452,0,0,0,0,0,0,0,0,0,0,0,0,0,0.2626,0.2657,0.2623,0.257,0.2565,0.2573,0.2572,0.2571,0.2475,0.2472,0.247,0.2467,0.2449,0.2451,0.2452,0.2513,0,0,0.2457,0.2458,0,0,0,0,0,0,0,0,0.2628,0.2625,0.2578,0.2574,0.2568,0.2529,0.2577,0.2554,0.2476,0.2507,0.2469,0.2466,0.2483,0.2481,0.2474,0.2513,0.2512,0.2457,0.2458,0.2459,0.2459,0,0,0,0,0,0,0,0.2631,0.2627,0.2601,0.2578,0.2572,0.2556,0.2548,0.2572,0.2509,0.2504,0.2497,0.2496,0.2479,0.2473,0.2473,0.2511,0.2457,0.2459,0.246,0.246,0.2606,0.2609,0,0,0,0,0,0,0.2643,0.2629,0.2603,0.26,0.2595,0.2558,0.2549,0.2542,0.2507,0.25,0.2498,0.2492,0.2471,0.2471,0.2472,0.2545,0.2459,0.246,0.2461,0.2603,0.2607,0.261,0,0,0,0,0,0,0.2644,0.2641,0.2605,0.2615,0.261,0.256,0.2553,0.2543,0.2527,0.2503,0.2495,0.2492,0.2469,0.247,0.2491,0.2543,0.2461,0.2463,0.26,0.2604,0.2609,0.2691,0,0,0,0,0,0,0.2645,0.2642,0.2642,0.2616,0.261,0.2624,0.2556,0.2544,0.2532,0.2523,0.2497,0.2492,0.2467,0.2488,0.2492,0.2544,0.2464,0.2596,0.2602,0.2607,0.2684,0.2697,0.2708,0,0,0,0,0,0.2646,0.2659,0.2642,0.2639,0.2611,0.2626,0.2622,0.2576,0.2535,0.2548,0.2519,0.2492,0.2526,0.2492,0.2496,0.2549,0.2594,0.26,0.2607,0.2679,0.2695,0.2708,0,0,0,0,0,0,0.2672,0.265,0.2631,0.2634,0.2638,0.261,0.2618,0.2587,0.2574,0.2563,0.2522,0.2518,0.2567,0.2551,0.2514,0.2611,0.2561,0.2568,0.2614,0.2629,0.2641,0.2624,0.2465,0,0,0,0,0,0.2683,0.2686,0.2671,0.2679,0.2684,0.2654,0.2652,0.2628,0.2613,0.2602,0.2582,0.2577,0.2603,0.2604,0.2626,0.2671,0.2651,0.2713,0.2726,0.2736,0.2727,0.275,0.2762,0.2632,0.2632,0.2631,0,0,0.2693,0.2686,0.2685,0.2686,0.2681,0.2692,0.2646,0.2659,0.266,0.261,0.2613,0.2627,0.2629,0.2679,0.27,0.2664,0.2767,0.2744,0.2752,0.2738,0.2758,0.277,0.2781,0.2636,0.2635,0.2635,0,0,0.2724,0.2718,0.2728,0.2737,0.2744,0.2734,0.2741,0.2727,0.2715,0.2736,0.2709,0.2748,0.2763,0.2779,0.2788,0.2886,0.2841,0.29,0.2932,0.2956,0.2966,0.2974,0.2974,0.2981,0.2893,0.2893,0.2893,0,0.2737,0.2738,0.274,0.2757,0.2758,0.2753,0.2764,0.2771,0.2763,0.2763,0.275,0.2797,0.2815,0.2865,0.2902,0.2914,0.2898,0.2872,0.2969,0.2976,0.2984,0.2981,0.2988,0.2898,0.2897,0.2897,0.2896,0,0.2766,0.2771,0.279,0.2797,0.2811,0.2831,0.2837,0.2855,0.2846,0.2839,0.2892,0.292,0.2934,0.2975,0.2966,0.3038,0.3002,0.2989,0.2922,0.3001,0.2994,0.3,0.2905,0.2903,0.2901,0.29,0,0,0.2768,0.2798,0.2801,0.2798,0.2828,0.2834,0.2873,0.2889,0.2891,0.2927,0.2937,0.3023,0.3026,0.3038,0.3054,0.3085,0.315,0.3055,0.3054,0.3038,0.3174,0.3047,0.304,0.3139,0.3141,0.3142,0.315,0,0.2781,0.2806,0.2821,0.2838,0.2842,0.2863,0.2886,0.2908,0.2928,0.2949,0.3003,0.303,0.3052,0.3066,0.3111,0.3146,0.3167,0.3146,0.3114,0.3113,0.2976,0.3044,0.2899,0.2885,0.3156,0.3157,0.3157,0,0.2781,0.2797,0.2813,0.2826,0.2831,0.2845,0.2866,0.2888,0.2937,0.2955,0.3004,0.3028,0.3108,0.3105,0.3187,0.3165,0.3174,0.3192,0.3192,0.3041,0.2996,0.2851,0.2885,0.2801,0.3166,0.3165,0.3165,0,0.2745,0.2778,0.2783,0.2791,0.282,0.2829,0.2842,0.2883,0.2891,0.2952,0.2964,0.3049,0.3078,0.3135,0.3191,0.3183,0.3256,0.3247,0.3135,0.3126,0.2978,0.2952,0.2908,0.3283,0.3283,0.3283,0.3283,0,0.2731,0.2729,0.2762,0.2762,0.2757,0.2792,0.2791,0.2823,0.2867,0.2867,0.2952,0.2967,0.3082,0.3135,0.319,0.3179,0.3254,0.3142,0.3122,0.3004,0.2981,0.288,0.2866,0.3283,0.3283,0.3283,0.3283,0,0.2682,0.2709,0.2704,0.2733,0.2734,0.2727,0.2741,0.2743,0.2794,0.2804,0.282,0.291,0.2975,0.3074,0.3162,0.3139,0.3067,0.3141,0.2982,0.2941,0.2716,0.2713,0.2549,0.2482,0.3005,0.3002,0.2999,0,0.266,0.2652,0.2664,0.2652,0.2661,0.2656,0.2647,0.2695,0.2696,0.2751,0.2749,0.2819,0.2843,0.2928,0.2942,0.2985,0.2952,0.2827,0.2786,0.2677,0.2663,0.259,0.2543,0.264,0.2635,0.263,0.2627,0,0.2605,0.2606,0.2606,0.2575,0.256,0.2539,0.2535,0.2526,0.2571,0.2583,0.2593,0.2619,0.2683,0.265,0.2688,0.2703,0.2662,0.2731,0.2676,0.2411,0.2273,0.2207,0.2658,0.2588,0.2592,0.2595,0.2597,0.2599,0.2548,0.2524,0.2508,0.2466,0.2449,0.2396,0.234,0.2353,0.2324,0.2305,0.2408,0.2398,0.241,0.2437,0.2434,0.2295,0.2358,0.2213,0.2232,0.2179,0.2057,0.2398,0.2264,0.2266,0.2268,0.2269,0.2271,0,0.2432,0.2413,0.2389,0.2316,0.2246,0.2278,0.2232,0.2161,0.2082,0.2137,0.2132,0.2106,0.2042,0.2065,0.194,0.1822,0.1777,0.178,0.1681,0.1675,0.2024,0.1949,0.167,0.167,0.167,0.167,0.167,0.167,0.2367,0.2291,0.2269,0.2114,0.207,0.194,0.1891,0.1824,0.183,0.1761,0.1745,0.1787,0.1798,0.1693,0.1545,0.1512,0.1422,0.1312,0.1371,0.1654,0.1697,0.1738,0.1665,0.133,0.133,0.0933,0.093,0.0927]},{"header":{"parameterUnit":"m.s-1","parameterCategory":2,"la1":30.2991,"la2":30.254,"lo1":-89.0895,"lo2":-89.0444,"dy":0.0017,"dx":0.0017,"nx":28,"ny":28,"refTime":"2023-08-24T21:00:00:Z","depth":"0","parameterNumber":3,"parameterNumberName":"V-component_of_CURRENTS"},"data":[0,0,0,0,0,0,0,0,0,0,0,0,0,0,0,0,0,0,0,0,0,0,0,0,0,0,0,0,0,0,0,0,0,0,0,0,0,0,0,0,0,0,0,0,0,0,0,0,0,0,0,0,0,0,0,0,0,0,0.06,0.06,0,0.0594,0.0594,0.0594,0.0542,0.0541,0.0539,0.0538,0.0505,0.0506,0.0506,0,0,0,0,0,0,0,0,0,0,0,0,0,0.0587,0.0587,0.06,0.06,0.06,0.0594,0.0594,0.0594,0.0543,0.0541,0.0539,0.0537,0.0505,0.0506,0.0506,0,0,0,0,0,0,0,0,0,0,0,0,0,0.0589,0.0587,0.06,0.0572,0.0569,0.0594,0.0594,0.0595,0.0543,0.0541,0.0539,0.0537,0.0505,0.0506,0.0507,0.0554,0,0,0.0509,0.0509,0,0,0,0,0,0,0,0,0.0589,0.059,0.0577,0.0574,0.0571,0.0565,0.0578,0.0579,0.0543,0.0555,0.0538,0.0536,0.0524,0.0523,0.0529,0.0553,0.0551,0.0509,0.0509,0.0509,0.051,0,0,0,0,0,0,0,0.0589,0.059,0.06,0.0576,0.0573,0.0567,0.0565,0.0578,0.0552,0.0554,0.0549,0.0547,0.0522,0.0529,0.0528,0.0551,0.0509,0.0509,0.051,0.051,0.0647,0.065,0,0,0,0,0,0,0.0588,0.059,0.06,0.0599,0.0573,0.0568,0.0566,0.0571,0.0552,0.0547,0.0549,0.0544,0.0528,0.0527,0.0526,0.0615,0.0509,0.051,0.0511,0.0644,0.0648,0.0651,0,0,0,0,0,0,0.0588,0.059,0.06,0.0593,0.0593,0.0571,0.0576,0.0572,0.0578,0.0549,0.0543,0.0559,0.0527,0.0525,0.0567,0.0611,0.051,0.0511,0.064,0.0645,0.0649,0.077,0,0,0,0,0,0,0.0588,0.059,0.0604,0.0593,0.0593,0.0634,0.0578,0.0573,0.0579,0.0573,0.0556,0.0551,0.0525,0.0566,0.0568,0.061,0.0512,0.0636,0.0642,0.0648,0.0762,0.0778,0.0792,0,0,0,0,0,0.0588,0.0621,0.0605,0.0607,0.061,0.0636,0.0638,0.0614,0.0582,0.0607,0.0601,0.0551,0.0605,0.057,0.0571,0.0615,0.0633,0.064,0.0647,0.0755,0.0775,0.0792,0,0,0,0,0,0,0.063,0.0619,0.0601,0.063,0.0638,0.0627,0.065,0.0628,0.0643,0.0636,0.0598,0.0595,0.0647,0.0625,0.0588,0.0675,0.0609,0.0617,0.0691,0.0709,0.0724,0.0718,0.0512,0,0,0,0,0,0.0645,0.0662,0.0653,0.068,0.0686,0.0669,0.0677,0.0663,0.0667,0.067,0.066,0.0659,0.0681,0.0688,0.0702,0.0754,0.0699,0.0783,0.0799,0.0811,0.081,0.0773,0.0783,0.0675,0.0675,0.0675,0,0,0.0665,0.0665,0.0672,0.069,0.0692,0.0719,0.0671,0.0696,0.0722,0.0667,0.0714,0.0715,0.0709,0.0768,0.0788,0.0752,0.0818,0.0821,0.0831,0.0822,0.0782,0.0791,0.08,0.068,0.0679,0.0678,0,0,0.0713,0.0721,0.0743,0.0761,0.0772,0.0771,0.0781,0.0784,0.0792,0.0841,0.0811,0.0848,0.0871,0.0883,0.0889,0.1001,0.0901,0.1,0.1068,0.1034,0.1041,0.1047,0.0997,0.0997,0.1005,0.1005,0.1005,0,0.073,0.076,0.076,0.0792,0.0809,0.0796,0.0829,0.0853,0.0871,0.0891,0.0872,0.0929,0.093,0.0991,0.1033,0.1034,0.0979,0.0995,0.105,0.1054,0.1058,0.1005,0.1003,0.1012,0.1011,0.101,0.101,0,0.0786,0.0817,0.0843,0.087,0.0901,0.0936,0.0956,0.0993,0.0998,0.1009,0.1074,0.1088,0.1108,0.1131,0.1117,0.1162,0.1103,0.1071,0.0993,0.1075,0.1015,0.1012,0.1021,0.1019,0.1017,0.1015,0,0,0.079,0.0859,0.0864,0.0893,0.0942,0.0969,0.1038,0.1086,0.1122,0.1161,0.1205,0.1271,0.1258,0.1264,0.1255,0.1243,0.1241,0.1172,0.1167,0.1105,0.1138,0.1125,0.1118,0.1199,0.1199,0.1199,0.1087,0,0.0822,0.0887,0.0917,0.0992,0.1031,0.1062,0.1124,0.1174,0.1211,0.1262,0.1289,0.1331,0.1313,0.1324,0.1317,0.1265,0.1235,0.1273,0.1083,0.1077,0.104,0.1115,0.1064,0.0962,0.1082,0.1082,0.1081,0,0.0855,0.0897,0.0964,0.1049,0.1067,0.1112,0.1195,0.1249,0.1325,0.1353,0.1397,0.1402,0.1435,0.1387,0.1324,0.1339,0.1246,0.1192,0.1186,0.1123,0.1057,0.0901,0.095,0.0871,0.1074,0.1075,0.1075,0,0.0851,0.0931,0.0983,0.1013,0.1105,0.1145,0.119,0.1273,0.1327,0.14,0.1438,0.1461,0.1469,0.1387,0.1312,0.1296,0.1209,0.1165,0.106,0.1056,0.0953,0.0941,0.0886,0.1084,0.1084,0.1084,0.1085,0,0.0882,0.0929,0.0982,0.102,0.109,0.1147,0.1226,0.1284,0.1362,0.1432,0.147,0.1517,0.1462,0.1423,0.1323,0.1201,0.1209,0.1081,0.1036,0.0998,0.0992,0.0868,0.0834,0.108,0.1081,0.1082,0.1083,0,0.0901,0.0931,0.0999,0.1074,0.1097,0.1148,0.1242,0.13,0.137,0.1457,0.1481,0.1544,0.1512,0.1447,0.132,0.1214,0.104,0.1035,0.0999,0.0954,0.0789,0.0764,0.0662,0.0627,0.0895,0.0894,0.0893,0,0.0928,0.0958,0.1024,0.1054,0.1093,0.1162,0.1214,0.1296,0.1359,0.1475,0.1517,0.1537,0.1561,0.1407,0.1245,0.1071,0.1004,0.0884,0.0863,0.079,0.0728,0.0727,0.0706,0.0762,0.076,0.0759,0.0758,0,0.0977,0.0984,0.103,0.1079,0.1127,0.1193,0.1267,0.1315,0.1415,0.1486,0.1565,0.1593,0.1491,0.134,0.1141,0.1008,0.0837,0.0849,0.0774,0.0634,0.0625,0.0567,0.0819,0.0745,0.0746,0.0747,0.0748,0.0748,0.0996,0.1024,0.1054,0.1106,0.1157,0.1216,0.1259,0.1336,0.1423,0.1521,0.1565,0.1599,0.14,0.1148,0.0996,0.0684,0.0733,0.0565,0.054,0.0546,0.0529,0.0767,0.0655,0.0656,0.0656,0.0657,0.0657,0,0.1,0.1025,0.1077,0.1124,0.1164,0.12,0.1289,0.1321,0.1396,0.1498,0.1554,0.1456,0.1207,0.0971,0.057,0.0389,0.0338,0.0311,0.0278,0.0271,0.0459,0.0471,0.0315,0.0315,0.0315,0.0315,0.0315,0.0315,0.0995,0.1024,0.1049,0.1102,0.114,0.1183,0.1224,0.1279,0.1353,0.141,0.1425,0.1456,0.1252,0.0638,0.0237,0.0151,0.0065,0.0041,0.0037,0.0139,0.0161,0.0182,0.0186,-0.0027,-0.0028,-0.0154,-0.0156,-0.0157]}],[{"header":{"parameterUnit":"m.s-1","parameterCategory":2,"la1":30.2991,"la2":30.254,"lo1":-89.0895,"lo2":-89.0444,"dy":0.0017,"dx":0.0017,"nx":28,"ny":28,"refTime":"2023-08-24T21:00:00:Z","depth":"2","parameterNumber":2,"parameterNumberName":"U-component_of_CURRENTS"},"data":[0,0,0,0,0,0,0,0,0,0,0,0,0,0,0,0,0,0,0,0,0,0,0,0,0,0,0,0,0,0,0,0,0,0,0,0,0,0,0,0,0,0,0,0,0,0,0,0,0,0,0,0,0,0,0,0,0,0,0.2342,0.2343,0,0.2413,0.2414,0.2414,0.242,0.242,0.2419,0.2419,0.2452,0.2454,0.2455,0,0,0,0,0,0,0,0,0,0,0,0,0,0.2313,0.2312,0.2342,0.2343,0.2344,0.2413,0.2414,0.2415,0.242,0.242,0.2419,0.2418,0.2452,0.2454,0.2455,0,0,0,0,0,0,0,0,0,0,0,0,0,0.2346,0.2312,0.2341,0.2357,0.2359,0.2413,0.2414,0.2415,0.2421,0.242,0.2419,0.2418,0.2451,0.2453,0.2456,0.2486,0,0,0.2462,0.2463,0,0,0,0,0,0,0,0,0.2344,0.2347,0.2353,0.2356,0.2359,0.2409,0.2416,0.2437,0.2421,0.2395,0.2419,0.2418,0.2437,0.244,0.2452,0.2487,0.2489,0.2462,0.2464,0.2464,0.2465,0,0,0,0,0,0,0,0.2342,0.2345,0.2368,0.2355,0.2358,0.2396,0.2398,0.2421,0.2417,0.2397,0.2398,0.241,0.2437,0.245,0.2453,0.2489,0.2462,0.2464,0.2465,0.2466,0.2575,0.2577,0,0,0,0,0,0,0.2333,0.2342,0.2365,0.237,0.2352,0.2396,0.2399,0.2392,0.2418,0.2422,0.2411,0.241,0.2447,0.2451,0.2454,0.2533,0.2464,0.2466,0.2468,0.2574,0.2576,0.2577,0,0,0,0,0,0,0.2332,0.2334,0.2363,0.2361,0.2367,0.2397,0.2389,0.2394,0.2425,0.2429,0.2432,0.244,0.2447,0.2451,0.2476,0.2532,0.2467,0.2469,0.2572,0.2574,0.2577,0.2662,0,0,0,0,0,0,0.233,0.2332,0.2348,0.2359,0.2367,0.2426,0.239,0.2396,0.2434,0.2434,0.2455,0.2456,0.2446,0.2473,0.2478,0.2534,0.2471,0.257,0.2573,0.2576,0.2657,0.2667,0.2676,0,0,0,0,0,0.2329,0.2342,0.2347,0.2352,0.2378,0.2429,0.2438,0.2454,0.2437,0.2474,0.246,0.2456,0.2497,0.2476,0.2482,0.2539,0.2568,0.2572,0.2576,0.2653,0.2665,0.2676,0,0,0,0,0,0,0.2324,0.2345,0.235,0.2366,0.2412,0.2431,0.2476,0.2471,0.2492,0.2491,0.2471,0.2473,0.2526,0.2513,0.2491,0.2578,0.2536,0.2541,0.2593,0.2604,0.2613,0.2592,0.2473,0,0,0,0,0,0.2334,0.2358,0.2385,0.2405,0.2438,0.2461,0.2489,0.2497,0.2509,0.2518,0.2522,0.2526,0.2546,0.2556,0.2578,0.2618,0.2571,0.2659,0.2669,0.2677,0.2663,0.2657,0.2664,0.2589,0.2589,0.2589,0,0,0.2334,0.2354,0.2365,0.241,0.245,0.2474,0.2477,0.2533,0.2542,0.2519,0.2546,0.257,0.2566,0.2614,0.2637,0.2608,0.2667,0.2681,0.2688,0.2669,0.2661,0.2668,0.2674,0.2592,0.2591,0.2591,0,0,0.2339,0.2377,0.2398,0.2435,0.2501,0.252,0.2539,0.2578,0.2604,0.2643,0.2621,0.2672,0.2698,0.2708,0.2712,0.2786,0.2725,0.2796,0.2819,0.2815,0.282,0.2825,0.2744,0.274,0.279,0.2791,0.2791,0,0.2355,0.2357,0.2419,0.2443,0.2468,0.2534,0.2549,0.2591,0.2623,0.2634,0.2668,0.2709,0.2749,0.2759,0.2801,0.2813,0.2753,0.2779,0.2826,0.2829,0.2832,0.2748,0.2743,0.2795,0.2795,0.2794,0.2794,0,0.2348,0.2369,0.2398,0.2437,0.2478,0.2523,0.2573,0.2621,0.2669,0.2687,0.2752,0.2808,0.2822,0.2867,0.2868,0.2903,0.2833,0.2847,0.2795,0.2845,0.2753,0.2746,0.2802,0.28,0.2799,0.2798,0,0,0.2341,0.2387,0.24,0.2417,0.248,0.2516,0.2554,0.2605,0.2627,0.2709,0.2742,0.2833,0.2868,0.2874,0.2896,0.2914,0.2926,0.2891,0.2889,0.2803,0.2836,0.2749,0.2732,0.2935,0.2935,0.2935,0.2751,0,0.2333,0.2361,0.238,0.2412,0.2434,0.2494,0.2523,0.2571,0.2641,0.2702,0.2782,0.2851,0.2864,0.2919,0.2929,0.2956,0.2915,0.2969,0.2805,0.2799,0.2712,0.2726,0.2562,0.2382,0.2744,0.2743,0.2742,0,0.2302,0.2335,0.2357,0.24,0.2421,0.2457,0.2527,0.256,0.2639,0.2697,0.2749,0.2812,0.2878,0.2917,0.2887,0.2909,0.2862,0.2859,0.2852,0.2734,0.2701,0.2398,0.2355,0.273,0.2731,0.2732,0.2732,0,0.2255,0.2309,0.2334,0.235,0.2413,0.2456,0.2509,0.2569,0.2599,0.2718,0.2757,0.2807,0.2882,0.2849,0.2854,0.2873,0.2794,0.2823,0.2652,0.2642,0.2452,0.2426,0.2749,0.2749,0.275,0.275,0.2751,0,0.221,0.2233,0.2339,0.2356,0.2402,0.2461,0.2514,0.2567,0.2645,0.2666,0.2764,0.2778,0.2878,0.2851,0.282,0.2699,0.2746,0.2634,0.26,0.2474,0.2453,0.2727,0.2727,0.2743,0.2745,0.2746,0.2747,0,0.2128,0.2191,0.2223,0.2333,0.2374,0.2418,0.2514,0.2541,0.2624,0.2664,0.2714,0.2774,0.2745,0.2742,0.2716,0.2651,0.2572,0.2491,0.2304,0.2254,0.2414,0.242,0.2292,0.2288,0.2284,0.2281,0.2278,0,0.2076,0.2089,0.2204,0.224,0.2307,0.2388,0.2427,0.2526,0.2547,0.2618,0.2622,0.2647,0.2576,0.2467,0.2425,0.2295,0.2394,0.2066,0.2111,0.2392,0.2372,0.2385,0.2396,0.1862,0.1857,0.1852,0.1848,0,0.1979,0.2038,0.2082,0.2165,0.2237,0.2276,0.2362,0.2362,0.2457,0.2456,0.2435,0.24,0.2322,0.2149,0.2034,0.1954,0.2102,0.1965,0.2298,0.2031,0.198,0.1964,0.199,0.1806,0.181,0.1813,0.1816,0.1817,0.1915,0.1933,0.2015,0.2082,0.2147,0.2176,0.2175,0.2195,0.2172,0.2115,0.2166,0.2004,0.2,0.1718,0.1635,0.1628,0.1771,0.1712,0.1729,0.175,0.1761,0.1711,0.1481,0.1483,0.1485,0.1487,0.1488,0,0.1838,0.1891,0.193,0.2001,0.2019,0.2112,0.2126,0.2042,0.1939,0.1847,0.1752,0.1485,0.1326,0.1344,0.1262,0.1257,0.128,0.1218,0.125,0.1291,0.1328,0.1323,0.0923,0.0921,0.092,0.0918,0,0,0.1806,0.1818,0.1846,0.1866,0.1933,0.1935,0.1931,0.1746,0.163,0.1347,0.1213,0.1175,0.1244,0.1028,0.1027,0.0968,0.1121,0.0928,0.138,0.1455,0.149,0.1608,0.1644,0,0,0,0,0]},{"header":{"parameterUnit":"m.s-1","parameterCategory":2,"la1":30.2991,"la2":30.254,"lo1":-89.0895,"lo2":-89.0444,"dy":0.0017,"dx":0.0017,"nx":28,"ny":28,"refTime":"2023-08-24T21:00:00:Z","depth":"2","parameterNumber":3,"parameterNumberName":"V-component_of_CURRENTS"},"data":[0,0,0,0,0,0,0,0,0,0,0,0,0,0,0,0,0,0,0,0,0,0,0,0,0,0,0,0,0,0,0,0,0,0,0,0,0,0,0,0,0,0,0,0,0,0,0,0,0,0,0,0,0,0,0,0,0,0,-0.0188,-0.0187,0,-0.0079,-0.0077,-0.0076,-0.0001,-0.0001,-0.0,-0.0,0.0041,0.0042,0.0043,0,0,0,0,0,0,0,0,0,0,0,0,0,-0.0232,-0.0232,-0.0188,-0.0187,-0.0186,-0.0079,-0.0077,-0.0075,-0.0001,-0.0001,-0.0,-0.0,0.0041,0.0042,0.0043,0,0,0,0,0,0,0,0,0,0,0,0,0,-0.0172,-0.0231,-0.0188,-0.014,-0.0135,-0.008,-0.0077,-0.0075,-0.0001,-0.0001,-0.0,-0.0,0.004,0.0042,0.0043,0.0051,0,0,0.0048,0.0049,0,0,0,0,0,0,0,0,-0.0176,-0.017,-0.0148,-0.0143,-0.0137,-0.0058,-0.0078,-0.0038,-0.0001,-0.0046,-0.0,-0.0,-0.0002,0.0003,0.0032,0.0053,0.0054,0.0048,0.0049,0.005,0.005,0,0,0,0,0,0,0,-0.018,-0.0174,-0.0139,-0.0147,-0.0141,-0.009,-0.0082,-0.0069,-0.0023,-0.0042,-0.0038,-0.0034,0.0001,0.003,0.0033,0.0055,0.0048,0.0049,0.005,0.0051,0.0103,0.0103,0,0,0,0,0,0,-0.021,-0.0178,-0.0143,-0.0136,-0.0163,-0.009,-0.0081,-0.0079,-0.0021,-0.0014,-0.0034,-0.0031,0.0028,0.0031,0.0035,0.0097,0.005,0.0051,0.0052,0.0102,0.0103,0.0104,0,0,0,0,0,0,-0.0211,-0.0207,-0.0147,-0.0159,-0.0148,-0.0091,-0.0089,-0.0077,-0.0017,-0.0016,-0.0008,0.0016,0.0028,0.0032,0.0068,0.0097,0.0052,0.0053,0.0102,0.0103,0.0103,0.0189,0,0,0,0,0,0,-0.0213,-0.0209,-0.0201,-0.0161,-0.0149,-0.011,-0.0089,-0.0075,-0.002,-0.0013,0.0029,0.0031,0.0028,0.0066,0.007,0.0098,0.0054,0.0101,0.0102,0.0103,0.0186,0.0193,0.0199,0,0,0,0,0,-0.0215,-0.0211,-0.0201,-0.0196,-0.0146,-0.011,-0.0098,-0.0053,-0.0018,0.0005,0.004,0.0032,0.0073,0.0069,0.0073,0.0102,0.0101,0.0102,0.0103,0.0183,0.0191,0.0199,0,0,0,0,0,0,-0.0222,-0.0202,-0.0191,-0.018,-0.0147,-0.0099,-0.0069,-0.0032,0.002,0.0039,0.005,0.0055,0.01,0.0081,0.0076,0.0114,0.0081,0.0083,0.014,0.0148,0.0154,0.0151,0.0056,0,0,0,0,0,-0.0225,-0.0223,-0.0189,-0.0182,-0.0157,-0.0102,-0.0073,-0.004,0.0001,0.0029,0.0068,0.0089,0.0103,0.0111,0.0127,0.015,0.0114,0.0164,0.0171,0.0176,0.0174,0.0151,0.0155,0.0107,0.0107,0.0107,0,0,-0.0227,-0.0219,-0.0215,-0.0184,-0.0145,-0.0131,-0.0081,-0.003,-0.0002,0.002,0.0095,0.0128,0.0117,0.0152,0.0167,0.0142,0.0169,0.0178,0.0183,0.0177,0.0152,0.0157,0.0161,0.0108,0.0107,0.0107,0,0,-0.0249,-0.0216,-0.0222,-0.0195,-0.0147,-0.0121,-0.0102,-0.0023,0.0039,0.011,0.0124,0.0186,0.0219,0.0223,0.0221,0.0268,0.0215,0.0258,0.0283,0.0261,0.0265,0.0268,0.0221,0.022,0.0249,0.0249,0.0249,0,-0.0256,-0.0257,-0.0215,-0.0211,-0.0193,-0.012,-0.0112,-0.0049,0.0036,0.0071,0.0141,0.0216,0.0257,0.0245,0.0289,0.0289,0.0242,0.0261,0.0271,0.0273,0.0275,0.0226,0.0223,0.0253,0.0253,0.0252,0.0252,0,-0.0287,-0.0274,-0.0264,-0.0254,-0.023,-0.0198,-0.0131,-0.007,0.0031,0.0085,0.0173,0.0258,0.0287,0.0322,0.0343,0.0353,0.0305,0.0295,0.0256,0.0285,0.0231,0.0227,0.0259,0.0258,0.0257,0.0255,0,0,-0.0333,-0.0297,-0.0292,-0.0271,-0.0237,-0.0208,-0.0176,-0.0124,-0.0082,0.0051,0.0126,0.0222,0.029,0.0293,0.0327,0.0348,0.0379,0.034,0.0336,0.03,0.0294,0.027,0.0262,0.0357,0.0357,0.0357,0.025,0,-0.0363,-0.0358,-0.0348,-0.0329,-0.03,-0.0253,-0.0227,-0.0173,-0.0081,0.002,0.0129,0.0244,0.0261,0.0352,0.0348,0.0408,0.0369,0.0406,0.0264,0.0259,0.0242,0.0258,0.0266,0.0172,0.0244,0.0244,0.0243,0,-0.0389,-0.0377,-0.0364,-0.0322,-0.0306,-0.0285,-0.0227,-0.0197,-0.0103,-0.0009,0.0061,0.0177,0.0274,0.0329,0.0318,0.0332,0.0303,0.0324,0.0318,0.0262,0.0228,0.0154,0.016,0.0234,0.0235,0.0236,0.0236,0,-0.0397,-0.038,-0.036,-0.0345,-0.0304,-0.0267,-0.0238,-0.0187,-0.0127,0.0012,0.0094,0.016,0.0308,0.026,0.0326,0.033,0.0303,0.03,0.0199,0.0195,0.0158,0.0152,0.0225,0.0225,0.0226,0.0226,0.0226,0,-0.0412,-0.0392,-0.0332,-0.0307,-0.0255,-0.0235,-0.0163,-0.0138,-0.0053,0.0014,0.0102,0.0176,0.0314,0.0333,0.0298,0.0238,0.0245,0.0201,0.0172,0.0186,0.0184,0.0205,0.0204,0.0222,0.0223,0.0224,0.0224,0,-0.0411,-0.0387,-0.0349,-0.0284,-0.0241,-0.0194,-0.0086,-0.0049,0.0005,0.0102,0.0186,0.0265,0.0297,0.0315,0.0325,0.0246,0.0186,0.0125,0.0136,0.0111,0.0085,0.009,0.0019,0.0018,0.0016,0.0015,0.0014,0,-0.0402,-0.0379,-0.0307,-0.0261,-0.0208,-0.0113,-0.0054,0.0011,0.0052,0.0118,0.0163,0.0265,0.0325,0.0269,0.0214,0.0115,0.0106,0.0022,0.0047,0.0088,0.0067,0.0074,0.008,0.0019,0.0018,0.0017,0.0017,0,-0.0381,-0.036,-0.033,-0.0237,-0.015,-0.0068,0.0033,0.0076,0.0134,0.0204,0.0257,0.0331,0.0302,0.0283,0.0172,0.0076,0.0063,0.0003,0.0041,0.0081,0.0082,0.0063,0.0071,0.0011,0.0011,0.0012,0.0012,0.0012,-0.0357,-0.0338,-0.029,-0.0207,-0.012,-0.0031,0.0037,0.0123,0.0205,0.0313,0.033,0.0414,0.036,0.0257,0.0118,-0.0017,-0.0017,-0.0054,-0.005,-0.0046,-0.0015,-0.0015,-0.0101,-0.0101,-0.0101,-0.0101,-0.0101,0,-0.032,-0.0306,-0.025,-0.0163,-0.0087,-0.0013,0.0078,0.0137,0.0238,0.0369,0.0479,0.0421,0.0369,0.0259,0.0061,-0.0058,-0.005,-0.01,-0.0053,-0.0048,-0.0043,-0.0009,-0.0096,-0.0096,-0.0096,-0.0096,0,0,-0.0302,-0.0269,-0.0255,-0.0141,-0.0057,0.0052,0.011,0.0191,0.028,0.0425,0.0517,0.0603,0.044,0.03,0.0132,0.0027,0.002,-0.0001,0.0002,0.0081,0.0088,-0.0018,0.0039,0,0,0,0,0]}],[{"header":{"parameterUnit":"m.s-1","parameterCategory":2,"la1":30.2991,"la2":30.254,"lo1":-89.0895,"lo2":-89.0444,"dy":0.0017,"dx":0.0017,"nx":28,"ny":28,"refTime":"2023-08-24T21:00:00:Z","depth":"4","parameterNumber":2,"parameterNumberName":"U-component_of_CURRENTS"},"data":[0,0,0,0,0,0,0,0,0,0,0,0,0,0,0,0,0,0,0,0,0,0,0,0,0,0,0,0,0,0,0,0,0,0,0,0,0,0,0,0,0,0,0,0,0,0,0,0,0,0,0,0,0,0,0,0,0,0,0.0572,0.0572,0,0.0573,0.0573,0.0573,0.0575,0.0575,0.0575,0.0575,0.0569,0.0568,0.0568,0,0,0,0,0,0,0,0,0,0,0,0,0,0.0552,0.0552,0.0572,0.0572,0.0573,0.0573,0.0573,0.0573,0.0575,0.0575,0.0575,0.0576,0.0569,0.0568,0.0568,0,0,0,0,0,0,0,0,0,0,0,0,0,0.0556,0.0552,0.0572,0.0575,0.0575,0.0573,0.0573,0.0573,0.0575,0.0575,0.0575,0.0576,0.0569,0.0568,0.0568,0.056,0,0,0.0566,0.0566,0,0,0,0,0,0,0,0,0.0556,0.0557,0.0574,0.0574,0.0575,0.0575,0.0563,0.0569,0.0575,0.0574,0.0575,0.0576,0.0571,0.057,0.0568,0.056,0.056,0.0566,0.0566,0.0566,0.0566,0,0,0,0,0,0,0,0.0556,0.0557,0.0571,0.0574,0.0575,0.0568,0.0569,0.0564,0.057,0.0574,0.0574,0.0576,0.0571,0.0569,0.0568,0.056,0.0566,0.0566,0.0566,0.0565,0.0595,0.0596,0,0,0,0,0,0,0.0559,0.0557,0.0571,0.0572,0.0567,0.0569,0.057,0.0574,0.057,0.057,0.0576,0.0576,0.0569,0.0569,0.0568,0.0599,0.0566,0.0565,0.0565,0.0594,0.0595,0.0596,0,0,0,0,0,0,0.0558,0.056,0.0571,0.0565,0.0566,0.0569,0.0574,0.0574,0.0589,0.0572,0.0572,0.0593,0.0569,0.0568,0.0588,0.0597,0.0565,0.0565,0.0592,0.0594,0.0595,0.0635,0,0,0,0,0,0,0.0558,0.056,0.057,0.0565,0.0567,0.0572,0.0573,0.0574,0.0589,0.059,0.0586,0.0585,0.057,0.0589,0.0588,0.0596,0.0564,0.0591,0.0593,0.0595,0.0633,0.0638,0.0643,0,0,0,0,0,0.0557,0.0555,0.0571,0.0573,0.0578,0.0572,0.0572,0.0574,0.059,0.059,0.0606,0.0586,0.0601,0.059,0.0588,0.0596,0.059,0.0592,0.0595,0.063,0.0637,0.0642,0,0,0,0,0,0,0.0547,0.0556,0.0572,0.0574,0.058,0.0573,0.0576,0.0587,0.0599,0.0611,0.0602,0.0602,0.0615,0.0609,0.0597,0.0612,0.0591,0.0593,0.0618,0.0624,0.0629,0.0633,0.0564,0,0,0,0,0,0.0554,0.056,0.0567,0.0572,0.0578,0.0587,0.059,0.0596,0.0604,0.061,0.0615,0.0621,0.062,0.0627,0.062,0.0636,0.0645,0.064,0.0645,0.0649,0.0652,0.0691,0.07,0.0604,0.0604,0.0604,0,0,0.0549,0.0559,0.0561,0.0572,0.058,0.0584,0.0589,0.0599,0.0606,0.0607,0.0629,0.0635,0.0628,0.064,0.0646,0.0639,0.0682,0.0652,0.0656,0.0657,0.0694,0.0704,0.0712,0.0606,0.0605,0.0605,0,0,0.0537,0.0558,0.0559,0.057,0.0589,0.0592,0.0602,0.0615,0.0624,0.0647,0.065,0.0662,0.0674,0.0663,0.066,0.0689,0.0702,0.0704,0.0738,0.0776,0.0784,0.0791,0.0818,0.0828,0.0713,0.0713,0.0713,0,0.0537,0.0544,0.0557,0.0567,0.058,0.06,0.0608,0.0615,0.0636,0.0655,0.0658,0.0693,0.0672,0.0689,0.0702,0.0694,0.0739,0.0713,0.0782,0.079,0.0797,0.0823,0.0833,0.0715,0.0715,0.0715,0.0715,0,0.0522,0.0542,0.0544,0.0568,0.058,0.0591,0.0608,0.0634,0.066,0.0672,0.0708,0.0702,0.0725,0.0721,0.0721,0.0766,0.0789,0.0779,0.0766,0.0809,0.0833,0.0843,0.0719,0.0718,0.0717,0.0717,0,0,0.0489,0.0526,0.0531,0.0553,0.0589,0.0593,0.0623,0.0649,0.068,0.0706,0.0745,0.0742,0.0767,0.0766,0.0773,0.0808,0.0875,0.0836,0.0837,0.0862,0.0989,0.0897,0.0898,0.0912,0.0914,0.0915,0.0988,0,0.048,0.05,0.0521,0.0547,0.0562,0.0604,0.0626,0.066,0.0696,0.0737,0.0751,0.0782,0.0776,0.0808,0.0839,0.0857,0.0905,0.0857,0.0945,0.0947,0.0859,0.0907,0.0921,0.0995,0.0997,0.0999,0.1,0,0.0461,0.0481,0.0504,0.0555,0.0566,0.0587,0.0652,0.0674,0.0734,0.077,0.0822,0.0845,0.088,0.0878,0.0944,0.0936,0.0977,0.0995,0.0998,0.0903,0.0872,0.0944,0.1017,0.1016,0.1015,0.1014,0.1012,0,0.0431,0.0472,0.0494,0.051,0.0563,0.0596,0.0629,0.0692,0.0724,0.0807,0.0851,0.09,0.0932,0.0987,0.1008,0.1011,0.1089,0.1078,0.1036,0.103,0.1073,0.1064,0.1155,0.1155,0.1154,0.1154,0.1154,0,0.0416,0.0436,0.0488,0.0499,0.0537,0.0585,0.0636,0.0687,0.076,0.0801,0.087,0.0911,0.0977,0.102,0.1043,0.1053,0.1112,0.105,0.1046,0.1088,0.108,0.108,0.107,0.1157,0.1156,0.1156,0.1155,0,0.0387,0.042,0.0444,0.05,0.0525,0.0554,0.0636,0.0671,0.0755,0.0818,0.0852,0.0941,0.0996,0.1038,0.1111,0.108,0.11,0.1103,0.1143,0.1139,0.1016,0.1007,0.1062,0.106,0.1057,0.1056,0.1054,0,0.0374,0.0384,0.0434,0.0455,0.0487,0.0542,0.058,0.0664,0.07,0.082,0.0836,0.0934,0.0983,0.1003,0.105,0.1084,0.1083,0.1088,0.1053,0.1017,0.1008,0.1003,0.0998,0.1051,0.105,0.1049,0.1049,0,0.0344,0.0363,0.0378,0.0421,0.0462,0.0501,0.0561,0.0584,0.0679,0.0758,0.0819,0.0866,0.0926,0.0961,0.1,0.1019,0.1067,0.1065,0.107,0.1038,0.1004,0.0996,0.0994,0.1041,0.1042,0.1043,0.1044,0,0.0318,0.0317,0.034,0.0378,0.0419,0.045,0.0491,0.0542,0.0591,0.0718,0.0732,0.0833,0.0913,0.0929,0.0952,0.0964,0.096,0.0932,0.0944,0.0953,0.088,0.0818,0.0805,0,0,0,0,0,0.0293,0.0287,0.0304,0.033,0.0368,0.0403,0.0469,0.0512,0.0599,0.0622,0.068,0.0734,0.0794,0.0837,0.0832,0.0899,0.0954,0.0887,0.0925,0.1,0.1008,0.093,0,0,0,0,0,0,0.0272,0.028,0.028,0.0285,0.0302,0.0342,0.0386,0.0452,0.0467,0.0563,0.0598,0.0677,0.074,0.0789,0.0814,0.0827,0.0833,0.0946,0.0943,0.0995,0.1003,0.101,0.0932,0,0,0,0,0]},{"header":{"parameterUnit":"m.s-1","parameterCategory":2,"la1":30.2991,"la2":30.254,"lo1":-89.0895,"lo2":-89.0444,"dy":0.0017,"dx":0.0017,"nx":28,"ny":28,"refTime":"2023-08-24T21:00:00:Z","depth":"4","parameterNumber":3,"parameterNumberName":"V-component_of_CURRENTS"},"data":[0,0,0,0,0,0,0,0,0,0,0,0,0,0,0,0,0,0,0,0,0,0,0,0,0,0,0,0,0,0,0,0,0,0,0,0,0,0,0,0,0,0,0,0,0,0,0,0,0,0,0,0,0,0,0,0,0,0,-0.0151,-0.0151,0,-0.0149,-0.0149,-0.0148,-0.0106,-0.0105,-0.0104,-0.0103,-0.0138,-0.014,-0.0142,0,0,0,0,0,0,0,0,0,0,0,0,0,-0.014,-0.014,-0.0151,-0.0151,-0.0151,-0.0149,-0.0149,-0.0148,-0.0106,-0.0105,-0.0104,-0.0103,-0.0138,-0.014,-0.0142,0,0,0,0,0,0,0,0,0,0,0,0,0,-0.0141,-0.014,-0.0151,-0.0131,-0.0129,-0.0149,-0.0149,-0.0148,-0.0107,-0.0105,-0.0104,-0.0102,-0.0137,-0.014,-0.0143,-0.019,0,0,-0.0151,-0.0152,0,0,0,0,0,0,0,0,-0.0141,-0.0142,-0.0134,-0.0132,-0.013,-0.0127,-0.0157,-0.0165,-0.0107,-0.0114,-0.0103,-0.0102,-0.014,-0.0142,-0.0144,-0.0192,-0.0194,-0.0152,-0.0153,-0.0154,-0.0155,0,0,0,0,0,0,0,-0.0141,-0.0142,-0.0149,-0.0134,-0.0132,-0.0128,-0.0127,-0.0158,-0.0136,-0.0114,-0.0111,-0.0112,-0.0139,-0.0141,-0.0144,-0.0194,-0.0151,-0.0154,-0.0156,-0.0157,-0.0294,-0.0295,0,0,0,0,0,0,-0.0144,-0.0142,-0.015,-0.0149,-0.0133,-0.013,-0.0128,-0.0129,-0.0135,-0.0134,-0.0113,-0.011,-0.0137,-0.0141,-0.0145,-0.0193,-0.0154,-0.0157,-0.0159,-0.0292,-0.0294,-0.0296,0,0,0,0,0,0,-0.0143,-0.0144,-0.015,-0.0146,-0.0146,-0.0131,-0.0133,-0.013,-0.013,-0.0134,-0.0133,-0.0116,-0.0136,-0.0141,-0.0178,-0.0194,-0.0158,-0.0161,-0.0289,-0.0292,-0.0295,-0.0294,0,0,0,0,0,0,-0.0143,-0.0144,-0.0152,-0.0146,-0.0147,-0.0161,-0.0135,-0.0131,-0.0133,-0.0129,-0.0137,-0.0138,-0.0135,-0.0174,-0.018,-0.0197,-0.0163,-0.0287,-0.0291,-0.0294,-0.0292,-0.0297,-0.0301,0,0,0,0,0,-0.0143,-0.0151,-0.0152,-0.0153,-0.0155,-0.0162,-0.0162,-0.0146,-0.0135,-0.014,-0.0149,-0.0138,-0.0202,-0.0178,-0.0185,-0.0203,-0.0285,-0.029,-0.0294,-0.029,-0.0296,-0.0301,0,0,0,0,0,0,-0.0148,-0.0148,-0.0148,-0.0156,-0.0162,-0.0155,-0.0161,-0.0154,-0.0165,-0.0164,-0.0163,-0.0166,-0.0204,-0.0216,-0.019,-0.0258,-0.0243,-0.0249,-0.0237,-0.0243,-0.0248,-0.02,-0.0165,0,0,0,0,0,-0.0156,-0.0161,-0.0164,-0.0172,-0.0178,-0.0175,-0.0178,-0.017,-0.0177,-0.0178,-0.0189,-0.0209,-0.0232,-0.0245,-0.027,-0.0311,-0.0298,-0.0331,-0.0336,-0.0339,-0.0309,-0.0318,-0.0319,-0.0311,-0.031,-0.031,0,0,-0.0159,-0.0162,-0.0164,-0.0174,-0.0178,-0.0171,-0.0172,-0.0181,-0.0171,-0.0186,-0.0194,-0.0229,-0.0249,-0.0285,-0.0304,-0.0293,-0.0341,-0.0345,-0.0347,-0.0314,-0.0322,-0.0323,-0.0323,-0.0313,-0.0313,-0.0312,0,0,-0.0151,-0.0175,-0.0166,-0.0173,-0.0183,-0.0184,-0.0188,-0.0197,-0.0198,-0.0226,-0.0229,-0.0265,-0.0314,-0.0316,-0.0325,-0.0376,-0.0366,-0.0408,-0.0387,-0.0397,-0.0396,-0.0396,-0.0392,-0.0391,-0.0408,-0.0408,-0.0408,0,-0.0149,-0.0143,-0.0167,-0.0158,-0.0157,-0.0185,-0.017,-0.0182,-0.0201,-0.0207,-0.023,-0.0291,-0.0315,-0.0328,-0.0347,-0.0379,-0.0385,-0.0358,-0.0398,-0.0397,-0.0396,-0.0392,-0.0391,-0.0408,-0.0408,-0.0408,-0.0408,0,-0.0121,-0.0124,-0.0126,-0.0118,-0.0125,-0.0129,-0.0143,-0.0161,-0.0186,-0.0196,-0.0239,-0.0286,-0.0308,-0.0346,-0.036,-0.0377,-0.0384,-0.0401,-0.0371,-0.0396,-0.0392,-0.039,-0.0409,-0.0409,-0.0409,-0.0409,0,0,-0.009,-0.0099,-0.0098,-0.0092,-0.0106,-0.0107,-0.0109,-0.0115,-0.0111,-0.017,-0.0169,-0.0236,-0.0269,-0.0281,-0.0322,-0.0343,-0.0357,-0.0372,-0.0373,-0.0343,-0.0376,-0.0364,-0.0361,-0.039,-0.0389,-0.0389,-0.0378,0,-0.0056,-0.0033,-0.0043,-0.0025,-0.002,-0.0046,-0.0041,-0.0056,-0.009,-0.0108,-0.0165,-0.0192,-0.0241,-0.0266,-0.0293,-0.0346,-0.0352,-0.0357,-0.0376,-0.0375,-0.0342,-0.0358,-0.0388,-0.0377,-0.0377,-0.0376,-0.0376,0,-0.0021,-0.0011,0.0017,0.0016,0.0018,0.0028,0.0024,0.0024,-0.0007,-0.0037,-0.0074,-0.0121,-0.0158,-0.0206,-0.0266,-0.0274,-0.0308,-0.035,-0.0351,-0.0328,-0.036,-0.0348,-0.0373,-0.0373,-0.0373,-0.0373,-0.0374,0,0.0006,0.0024,0.0047,0.0048,0.005,0.0061,0.0063,0.0045,0.0045,0.0014,-0.0002,-0.0054,-0.0086,-0.0143,-0.0232,-0.025,-0.03,-0.0331,-0.034,-0.034,-0.035,-0.0351,-0.0341,-0.0341,-0.0341,-0.0341,-0.0341,0,0.0034,0.0048,0.0061,0.007,0.0097,0.0092,0.011,0.0102,0.0094,0.0097,0.004,0.0024,-0.0076,-0.0127,-0.0201,-0.0264,-0.0267,-0.0318,-0.0333,-0.0356,-0.0357,-0.0349,-0.035,-0.0341,-0.0341,-0.0341,-0.0341,0,0.0045,0.0055,0.0076,0.0097,0.0106,0.0122,0.0142,0.0152,0.0143,0.0147,0.0142,0.0086,0.0022,-0.0069,-0.0161,-0.0214,-0.0281,-0.0294,-0.0294,-0.0313,-0.0319,-0.032,-0.0295,-0.0294,-0.0294,-0.0293,-0.0293,0,0.0046,0.0061,0.0095,0.0111,0.012,0.0145,0.0163,0.0172,0.0185,0.0181,0.0185,0.0137,0.0088,-0.002,-0.0123,-0.023,-0.0252,-0.0273,-0.0306,-0.0294,-0.0312,-0.0315,-0.0317,-0.0292,-0.0292,-0.0292,-0.0292,0,0.005,0.0064,0.0087,0.0125,0.015,0.0178,0.0206,0.0223,0.0236,0.0233,0.0227,0.0169,0.0106,-0.0,-0.0077,-0.0164,-0.0261,-0.0269,-0.0271,-0.0302,-0.0291,-0.031,-0.0313,-0.029,-0.029,-0.029,-0.029,0,0.005,0.0066,0.0101,0.0134,0.0167,0.02,0.0214,0.0239,0.0258,0.0264,0.0262,0.0189,0.0148,0.0036,-0.0045,-0.012,-0.0146,-0.0176,-0.0184,-0.0187,-0.0172,-0.0144,-0.0093,0,0,0,0,0,0.0052,0.0075,0.0105,0.0145,0.0179,0.02,0.0239,0.0252,0.0273,0.0281,0.0277,0.022,0.0114,0.006,-0.001,-0.0053,-0.0172,-0.0139,-0.0214,-0.0281,-0.0283,-0.0284,0,0,0,0,0,0,0.0053,0.0085,0.0106,0.015,0.0175,0.0215,0.024,0.0255,0.0261,0.0271,0.0216,0.0202,0.0093,0.0154,-0.0012,-0.0036,-0.0093,-0.0188,-0.0189,-0.028,-0.0281,-0.0283,-0.0285,0,0,0,0,0]}]]